Regional Weather Roundup
Issued by NWS

Home | Current Version | Previous Version | Graphics & Text | Print | Product List | Glossary On
Versions: 1 2 3 4 5 6 7 8 9 10 11 12 13 14 15 16 17 18 19 20 21 22 23 24 25 26 27 28 29 30 31 32 33 34 35 36 37 38 39 40 41 42 43 44 45 46 47 48 49
000
ASUS45 KBOU 271007
RWRCO

WEATHER ROUNDUP FOR COLORADO
NATIONAL WEATHER SERVICE DENVER/BOULDER CO
400 AM MDT MON APR 27 2015

NOTE: "FAIR" INDICATES FEW OR NO CLOUDS BELOW 12000 FEET WITH NO
SIGNIFICANT WEATHER AND/OR OBSTRUCTIONS TO VISIBILITY.

COZ001>005-013-030-031-271100-
...NORTHWEST COLORADO...

CITY           SKY/WX    TMP DP  RH WIND       PRES   REMARKS
CRAIG          LGT RAIN  40  38  93 SW3       30.08R FOG
HAYDEN         CLOUDY    39  36  87 W6        30.07R
MEEKER         CLOUDY    41  37  86 CALM      30.07R
MOUNT WERNER   NOT AVBL
STEAMBOAT SPGS CLOUDY    37  37  98 CALM      30.07R
WALDEN         PTCLDY    25  21  86 SE7       30.11R WCI  17
$$

COZ006>008-011-271100-
...WEST CENTRAL VALLEYS...

CITY           SKY/WX    TMP DP  RH WIND       PRES   REMARKS
GRAND JUNCTION MOCLDY    45  40  82 N5        30.00R
MONTROSE       CLOUDY    43  39  86 NW5       30.04R
EAGLE          PTCLDY    34  34 100 E3        30.07R
RIFLE          CLOUDY    41  37  86 NE5       30.04R
DELTA          NOT AVBL
NUCLA          PTCLDY    37  36  93 SE5       30.04R
$$

COZ017>023-064>068-271100-
...SOUTHWEST COLORADO...

CITY           SKY/WX    TMP DP  RH WIND       PRES   REMARKS
DURANGO        PTCLDY    31  31 100 CALM      29.96R
CORTEZ         CLEAR     35  33  92 E3        29.96R
PAGOSA SPRINGS PTCLDY    37  31  81 NE6       29.99R
TELLURIDE      CLOUDY    33  33 100 CALM      30.06R
WOLF CREEK PAS NOT AVBL
$$

COZ009-010-012-014-032>034-037-058>063-271100-
...CENTRAL COLORADO...

CITY           SKY/WX    TMP DP  RH WIND       PRES   REMARKS
ASPEN          CLOUDY    36  34  92 N3        30.05R
BUENA VISTA    LGT RAIN  34  33  96 CALM      30.09S
COPPER MTN     MOCLDY    28  23  80 E13       30.15R WCI  18
BERTHOUD PASS  HAZE      19  12  73 E20G25    30.17R VSB 1/4 WCI   4
COTTONWOOD PAS LGT SNOW  32  32 100 SE7       30.11R WCI  26
GUNNISON       PTCLDY    32  27  80 CALM      30.07R
KREMMLING      CLEAR     30  28  93 CALM      30.10R
LEADVILLE      CLOUDY    27  27 100 NW3       30.09R
MONARCH PASS   CLOUDY    23  21  93 MISG      30.18R
SALIDA         CLOUDY    35  34  96 CALM      30.17R
SUNLIGHT       CLOUDY    32  32 100 NE3       30.15R
WILKERSON PASS CLOUDY   N/A N/A N/A NE7       30.16R FOG
$$

COZ069>075-271100-
...SAN LUIS VALLEY/SANGRE DE CRISTO MOUNTAINS...

CITY           SKY/WX    TMP DP  RH WIND       PRES   REMARKS
ALAMOSA        CLOUDY    33  31  92 E7        30.01R WCI  27
LA VETA PASS   LGT SNOW  27  23  86 MISG      30.06R VSB 3/4
SAGUACHE       CLOUDY    37  32  81 N5        30.04R
$$

COZ035-036-038>040-271100-
...NORTHERN COLORADO FRONT RANGE...

CITY           SKY/WX    TMP DP  RH WIND       PRES   REMARKS
DENVER INTL AP CLOUDY    39  39 100 NE7       30.13R FOG
DMNS CITY PARK   N/A     39  38  95 N6        30.13S
AURORA         NOT AVBL
FRONT RANGE AP DRIZZLE   39  37  93 NE6       30.14R
ERIE MUNI ARPT CLOUDY    39  39  99 N3        30.14S FOG
BOULDER MUN AP CLOUDY    37  37 100 NE3       30.14R FOG
CENTENNIAL     DRIZZLE   37  37 100 NW7       30.12R FOG
BROOMFIELD     CLOUDY    37  37 100 N6        30.14R FOG
FORT COLLINS   CLOUDY    39  37  93 N7        30.16R
LONGMONT       CLOUDY    42  40  91 CALM      30.16S
$$

COZ041-046-047-076>085-087-088-271100-
...PIKES PEAK/PALMER DIVIDE AND SOUTHERN FOOTHILLS...

CITY           SKY/WX    TMP DP  RH WIND       PRES   REMARKS
COLO. SPRINGS  LGT RAIN  39  37  92 NW7       30.10R
A. F. ACADEMY  MOCLDY    36  36  99 N12       30.10R
ELLICOTT       CLOUDY   N/A N/A N/A NE14      30.08R
FALCON         CLOUDY    36  35  97 N9        30.11R
FORT CARSON    DRIZZLE   40  39  99 N9        30.08R
LIMON          LGT RAIN  34  33  96 N12       30.10S WCI  25
MONUMENT HILL  DRZL/FOG  32  32 100 N6        30.11R VSB 3/4 WCI  26
TRINIDAD       LGT RAIN  40  38  93 NE15      30.03R FOG
$$

COZ042>045-048>051-090-091-271100-
...NORTHEAST COLORADO...

CITY           SKY/WX    TMP DP  RH WIND       PRES   REMARKS
GREELEY ARPT   CLOUDY    37  32  81 N5        30.16R
AKRON          CLOUDY    41  41 100 E9        30.13R FOG
BURLINGTON     CLOUDY    43  41  93 NE14      30.10R FOG
WRAY           CLOUDY    46  45  97 NE8       30.13R
STERLING       CLOUDY    43  43 100 NE5       30.13F FOG
HOLYOKE        CLOUDY    46  43  87 NE7       30.15R
FORT MORGAN    DRIZZLE   41  40  96 NE5       30.14S
$$

COZ086-089-092>099-271100-
...SOUTHEAST COLORADO...

CITY           SKY/WX    TMP DP  RH WIND       PRES   REMARKS
PUEBLO         LGT RAIN  43  41  93 E5        30.08R
LA JUNTA       CLOUDY    44  41  89 NE13      30.06R
LAMAR          LGT RAIN  42  42 100 NE13      30.04S FOG
SPRINGFIELD      N/A     39  39 100 NE18      29.99S
$$



USA.gov is the U.S. government's official web portal to all federal, state and local government web resources and services.